Wind_Speed
66 63 60 53 43 35 39 31 29 52 65 72 75 73 71 67 68 68 67 66 64 61 58 54 51 48 45 43 39 37 35 34 30 27 27 24 21 20 18 21 21 20 17 17 14
68 66 62 58 49 42 38 40 31 41 63 71 77 76 73 67 70 71 71 71 68 65 62 59 56 54 49 47 42 41 39 35 33 31 28 26 25 24 21 18 18 19 21 19 15
71 67 67 63 53 45 39 37 38 36 58 72 77 82 77 75 69 72 74 75 73 70 68 64 61 58 54 49 49 44 42 39 36 36 34 30 27 27 28 26 26 24 22 22 20
69 70 68 67 63 53 45 41 36 36 42 70 80 82 84 77 72 74 77 78 79 76 73 69 66 63 60 56 52 51 45 43 40 36 36 35 34 31 32 31 29 29 26 26 23
70 71 71 69 66 62 51 41 38 40 38 54 77 85 85 85 77 75 77 80 80 81 78 75 72 68 65 62 57 55 51 49 44 41 38 37 36 30 32 31 30 28 30 27 25
78 75 73 72 70 70 56 49 46 45 41 42 64 85 88 88 86 79 80 82 84 82 82 79 76 72 69 66 63 59 57 55 49 46 43 41 37 39 32 33 33 32 30 29 27
80 78 79 73 73 63 58 54 51 50 44 47 49 71 87 94 91 88 85 84 85 83 85 84 81 78 73 72 68 66 62 59 56 53 48 46 43 44 36 36 36 33 32 32 28
71 69 68 65 65 64 62 60 57 50 50 44 50 52 79 95 96 93 91 88 85 85 87 86 86 82 81 77 75 72 68 65 64 59 55 50 52 48 40 40 38 36 33 34 33
78 76 74 73 69 67 66 65 63 60 54 49 48 52 57 87 98 98 94 95 90 88 88 89 88 86 84 83 79 75 73 73 72 66 60 55 58 53 47 43 44 42 39 39 38
84 83 80 75 74 74 72 71 69 65 63 53 47 54 56 66 93 105 100 96 97 95 91 90 88 87 85 84 84 87 81 78 75 71 66 61 63 59 54 49 49 48 46 43 41
86 88 89 83 83 81 79 78 76 73 68 63 57 56 58 63 72 97 105 105 98 99 96 93 92 84 88 92 92 87 85 82 81 76 74 69 67 65 59 54 54 54 51 49 47
90 90 89 87 87 83 81 81 81 80 76 69 65 58 59 61 68 79 97 106 105 100 102 98 91 91 96 94 92 90 88 87 87 83 81 76 70 70 66 62 58 57 56 55 52
95 95 95 94 95 90 87 86 87 84 82 74 69 65 67 66 66 67 74 93 108 109 104 99 98 99 99 96 94 91 93 93 91 88 85 81 73 75 72 66 64 60 59 58 57
99 98 98 101 98 98 99 97 98 96 93 81 77 71 73 70 68 70 70 78 94 109 113 107 102 100 100 100 100 97 93 93 94 93 89 84 76 77 77 72 69 69 66 64 61
107 105 102 102 101 100 101 103 108 107 104 90 85 80 79 70 69 75 76 76 77 91 111 111 109 108 103 101 106 104 102 101 98 94 90 85 82 78 79 75 73 73 70 71 67
117 111 111 111 107 105 107 109 110 111 96 93 88 83 83 78 77 81 77 83 79 78 79 106 110 104 102 107 108 104 105 106 103 99 92 90 89 76 77 78 77 77 74 73 70
128 127 119 116 112 113 114 117 122 111 92 94 88 88 90 87 88 83 82 83 82 77 71 68 82 97 110 104 104 104 105 107 110 110 102 101 98 81 84 83 83 82 79 77 75
131 132 131 126 119 120 122 129 132 102 97 95 94 97 96 95 95 91 90 88 83 82 80 77 81 74 81 97 106 104 108 112 112 109 106 106 95 89 88 88 87 87 86 83 81
127 134 134 134 130 131 133 141 134 105 101 104 106 104 100 97 98 102 91 89 89 87 87 82 81 80 75 80 91 104 103 101 106 103 102 103 98 96 96 96 95 90 90 88 85
120 126 126 133 139 145 148 148 137 113 111 113 116 111 105 100 105 106 100 87 90 91 91 89 87 85 81 82 84 93 99 107 109 106 102 100 101 96 97 98 99 100 97 93 92
108 116 118 128 138 150 157 153 138 124 121 120 121 119 112 109 106 103 96 93 95 95 98 98 95 89 91 83 80 84 82 84 90 96 101 102 93 96 99 98 98 102 104 103 102
109 108 112 123 131 138 146 153 144 134 132 132 130 123 120 116 111 107 101 98 100 102 105 99 101 100 90 92 89 87 82 86 87 87 88 88 81 86 91 95 96 96 97 98 100
98 99 109 117 122 127 133 140 142 143 139 139 136 131 126 122 121 116 109 105 106 106 104 105 108 104 102 97 88 82 86 81 82 83 77 78 61 64 74 84 89 95 96 101 100
86 89 99 107 111 117 125 131 134 136 142 145 144 141 135 128 128 119 115 113 111 110 112 112 115 111 103 87 96 97 94 93 93 94 73 74 55 65 66 76 84 93 93 93 96
79 81 90 93 101 108 115 120 127 132 137 143 146 144 142 138 136 129 122 120 120 118 118 119 117 111 103 98 104 99 99 99 101 87 91 60 68 61 68 67 62 73 80 88 95
72 76 83 85 91 97 104 110 117 122 129 134 142 147 145 144 144 139 136 129 128 128 124 127 125 125 116 107 111 108 107 108 106 92 90 76 68 64 68 66 60 62 68 77 82
69 72 76 78 83 91 92 97 105 114 120 123 135 138 144 147 148 146 144 138 135 134 133 137 129 132 123 117 119 127 114 107 102 96 92 91 70 76 77 72 67 69 66 66 71
Wind_Direction
286 287 290 290 291 276 278 259 243 222 217 213 214 218 222 226 223 220 213 216 214 216 217 218 222 223 223 220 219 215 215 219 224 226 227 234 237 243 242 238 246 262 263 256 258
283 285 285 286 287 289 273 275 246 231 221 213 216 218 222 224 223 223 219 217 216 216 217 217 221 224 229 228 222 220 223 223 226 230 227 229 236 236 238 247 255 264 273 255 250
279 281 282 284 283 283 273 264 265 238 223 219 214 217 220 224 226 222 218 216 216 218 219 219 220 224 228 231 232 233 228 223 223 228 233 235 236 243 246 252 258 259 267 262 257
273 276 278 279 279 280 274 254 260 248 232 221 217 217 220 223 222 223 222 218 218 218 219 220 222 223 227 229 232 233 234 231 231 230 232 236 238 243 249 252 259 257 260 264 269
269 270 272 273 276 277 270 252 256 253 248 228 224 218 220 224 224 224 226 225 219 220 219 222 222 223 225 227 230 233 235 234 237 238 238 235 238 242 246 253 258 260 258 262 264
267 267 267 268 270 274 265 258 251 254 252 241 227 222 220 223 225 224 225 227 224 221 221 221 223 225 225 228 229 232 234 234 236 235 239 242 242 245 246 252 257 260 259 259 263
264 264 263 264 266 262 261 259 254 248 247 248 239 228 222 222 225 225 224 226 227 226 223 224 222 224 226 226 229 229 231 235 234 236 237 240 243 247 243 249 252 258 259 258 262
260 259 258 256 256 258 258 257 257 253 243 248 245 231 227 225 223 225 227 223 227 231 228 225 225 224 225 226 227 228 230 231 233 233 233 237 241 246 245 247 250 254 253 257 259
256 256 256 256 254 254 255 254 253 254 244 245 239 242 235 228 225 226 227 227 224 229 233 230 227 227 227 227 227 228 229 230 230 231 233 236 240 242 245 246 247 252 254 253 258
254 252 252 250 253 253 252 253 250 249 251 247 243 236 241 236 227 227 227 228 227 226 228 233 234 231 231 230 229 229 228 231 233 234 233 236 236 240 242 244 246 249 252 252 256
255 254 252 251 253 252 251 250 249 248 252 252 240 236 235 242 238 229 227 228 228 230 230 229 232 235 236 233 231 232 232 233 234 234 235 232 235 237 240 241 246 247 250 254 255
256 255 253 250 250 248 247 247 248 248 247 247 245 239 233 237 239 234 229 228 229 230 231 231 229 232 236 237 236 236 236 237 236 235 236 237 234 238 237 238 238 247 252 253 256
253 253 252 251 249 247 245 244 244 245 245 243 241 239 241 235 239 240 236 231 230 231 231 231 231 231 232 236 239 239 238 241 242 241 240 239 237 240 242 241 240 239 243 249 253
248 249 250 250 249 247 246 244 243 244 244 241 242 241 244 242 235 236 238 234 230 230 232 231 232 234 234 234 235 237 239 242 244 242 243 244 242 244 247 246 246 244 243 242 246
248 248 245 247 247 247 245 245 244 243 243 241 241 241 243 243 234 235 234 234 229 230 231 231 235 232 234 236 237 234 237 239 241 243 242 243 243 244 249 251 251 251 252 251 248
252 247 246 244 243 245 245 245 244 241 241 241 240 239 240 241 235 230 235 234 233 231 233 233 233 236 238 238 237 239 238 239 240 241 240 242 242 238 249 252 253 253 253 255 256
251 251 246 243 243 242 243 243 243 241 240 240 238 235 236 236 235 231 232 232 233 232 231 227 232 234 234 236 240 242 241 241 241 241 239 238 241 233 240 245 248 252 253 254 255
247 246 247 245 239 242 242 243 241 240 239 241 237 234 230 231 234 233 229 230 230 232 231 225 225 224 231 236 235 236 238 242 242 243 243 242 241 242 241 244 246 247 248 250 253
246 246 244 243 243 242 243 245 242 238 237 239 238 236 233 230 231 235 231 230 228 229 230 228 227 224 228 228 234 237 237 239 240 244 247 246 245 245 245 244 246 249 252 251 250
245 245 243 241 241 240 241 243 245 238 237 236 238 236 233 230 228 231 232 228 229 231 229 229 230 229 228 230 230 236 237 239 243 244 244 246 247 247 247 246 246 248 250 253 255
244 243 241 239 238 237 241 243 241 239 239 238 237 237 235 233 230 229 230 228 228 229 230 229 228 228 229 229 229 230 229 234 237 240 242 242 242 244 245 247 249 249 251 255 256
243 242 241 239 238 238 239 241 242 237 236 236 237 237 237 236 235 233 229 228 230 230 231 232 232 229 228 230 230 231 234 235 238 240 241 240 239 243 246 246 247 249 253 256 258
245 242 240 239 238 238 238 238 239 240 237 237 237 236 236 236 236 235 233 231 230 231 232 232 233 233 230 229 231 234 237 241 242 243 241 240 234 244 243 245 247 251 251 254 257
245 243 241 241 240 238 238 238 238 238 237 238 238 236 235 234 237 235 234 234 234 233 234 234 235 234 233 229 232 234 236 239 240 243 240 237 230 232 249 247 245 250 251 252 253
246 243 241 239 238 238 238 237 237 236 234 236 239 237 237 236 236 236 234 232 234 235 235 237 238 239 237 235 236 236 238 242 244 246 247 239 236 251 248 255 260 253 250 252 253
245 243 242 240 238 237 237 236 236 234 233 233 234 236 237 236 237 237 234 234 233 233 234 236 237 238 237 236 239 238 239 241 244 243 248 242 240 251 257 257 259 256 253 250 250
246 245 243 240 237 237 236 236 236 234 233 233 232 233 235 235 235 236 235 231 233 234 235 235 236 239 239 237 239 240 239 241 245 244 248 245 241 245 249 251 252 253 254 252 250
Height
10659 10662 10662 10665 10666 10666 10662 10663 10665 10669 10677 10685 10691 10700 10710 10721 10730 10736 10741 10748 10753 10758 10763 10767 10774 10779 10783 10788 10793 10797 10800 10803 10806 10809 10812 10814 10817 10819 10821 10823 10825 10826 10827 10828 10828
10647 10649 10651 10653 10656 10657 10655 10652 10656 10660 10666 10673 10683 10690 10700 10710 10718 10724 10732 10738 10744 10750 10755 10759 10764 10770 10775 10781 10786 10790 10795 10798 10801 10804 10807 10809 10812 10814 10817 10819 10821 10823 10824 10824 10825
10634 10636 10637 10640 10644 10646 10648 10646 10646 10650 10655 10663 10670 10679 10688 10698 10706 10714 10720 10727 10733 10739 10745 10751 10755 10761 10767 10773 10777 10783 10788 10793 10796 10798 10802 10805 10807 10809 10812 10815 10817 10819 10820 10821 10821
10620 10623 10625 10625 10629 10634 10638 10638 10638 10639 10644 10650 10658 10667 10675 10685 10695 10702 10707 10713 10721 10727 10734 10740 10746 10751 10757 10763 10770 10773 10781 10786 10790 10792 10796 10798 10801 10804 10806 10809 10812 10813 10815 10816 10817
10605 10609 10611 10614 10614 10619 10625 10628 10627 10630 10633 10638 10645 10653 10662 10672 10679 10689 10696 10703 10708 10715 10721 10730 10735 10741 10748 10753 10761 10764 10772 10776 10781 10785 10790 10792 10795 10797 10800 10802 10805 10808 10809 10811 10812
10588 10593 10596 10598 10603 10604 10609 10614 10616 10618 10621 10626 10632 10640 10650 10657 10664 10676 10683 10690 10695 10702 10710 10717 10724 10733 10737 10744 10750 10755 10760 10765 10772 10776 10781 10785 10789 10788 10795 10797 10799 10802 10803 10805 10807
10569 10573 10578 10582 10586 10590 10593 10596 10601 10605 10608 10612 10619 10626 10636 10636 10650 10660 10667 10676 10683 10689 10696 10704 10710 10719 10728 10732 10740 10742 10750 10757 10760 10766 10771 10775 10780 10779 10791 10790 10792 10795 10797 10799 10800
10549 10552 10557 10562 10567 10572 10577 10581 10584 10590 10593 10599 10605 10613 10621 10621 10633 10640 10650 10658 10668 10676 10683 10690 10697 10707 10713 10721 10725 10732 10740 10746 10747 10754 10760 10768 10767 10772 10782 10783 10786 10789 10790 10792 10793
10530 10534 10537 10543 10547 10553 10559 10563 10567 10573 10579 10585 10593 10599 10601 10606 10616 10623 10633 10642 10652 10660 10668 10676 10685 10694 10702 10707 10715 10722 10727 10729 10731 10741 10751 10759 10757 10766 10772 10776 10778 10781 10783 10784 10786
10507 10513 10517 10521 10527 10532 10537 10543 10548 10556 10561 10574 10582 10584 10586 10583 10596 10603 10615 10625 10634 10642 10651 10663 10673 10684 10692 10698 10701 10695 10710 10717 10724 10731 10741 10748 10746 10755 10762 10767 10768 10771 10774 10776 10779
10482 10487 10494 10499 10503 10509 10516 10521 10527 10536 10548 10556 10562 10566 10572 10574 10580 10590 10595 10605 10618 10629 10640 10644 10657 10676 10669 10674 10678 10693 10700 10705 10708 10720 10724 10733 10739 10742 10751 10760 10758 10759 10763 10768 10769
10455 10461 10467 10472 10479 10484 10493 10502 10504 10513 10524 10536 10542 10550 10556 10558 10562 10569 10578 10588 10599 10611 10615 10630 10652 10648 10647 10658 10668 10679 10685 10690 10692 10704 10708 10717 10732 10731 10739 10745 10749 10752 10754 10755 10760
10429 10433 10437 10444 10450 10461 10470 10479 10478 10487 10498 10514 10524 10534 10532 10543 10548 10558 10566 10571 10581 10590 10601 10616 10624 10627 10634 10643 10654 10663 10671 10672 10679 10689 10697 10707 10723 10720 10725 10736 10739 10742 10743 10746 10748
10395 10403 10408 10411 10425 10434 10444 10447 10449 10457 10466 10495 10504 10519 10521 10529 10538 10539 10541 10549 10561 10572 10576 10595 10604 10613 10620 10628 10632 10641 10650 10654 10660 10670 10681 10695 10711 10713 10714 10722 10727 10729 10732 10733 10738
10359 10371 10378 10383 10395 10404 10408 10411 10414 10427 10433 10471 10483 10496 10499 10516 10525 10518 10521 10531 10542 10545 10553 10577 10576 10588 10596 10605 10608 10622 10627 10631 10637 10650 10665 10682 10693 10705 10700 10709 10712 10712 10720 10722 10728
10317 10331 10341 10352 10365 10373 10374 10374 10374 10380 10426 10444 10464 10477 10480 10491 10496 10501 10508 10513 10527 10532 10542 10553 10563 10576 10583 10586 10590 10603 10612 10616 10622 10632 10651 10659 10664 10697 10691 10694 10698 10699 10705 10707 10712
10275 10284 10300 10313 10336 10337 10337 10329 10321 10363 10420 10420 10444 10453 10454 10463 10464 10480 10487 10496 10510 10522 10532 10535 10546 10551 10552 10560 10568 10585 10593 10593 10597 10606 10632 10634 10642 10686 10676 10676 10680 10683 10688 10693 10699
10228 10240 10255 10274 10295 10297 10297 10279 10276 10374 10392 10400 10410 10411 10422 10433 10443 10453 10465 10475 10492 10501 10507 10518 10522 10533 10537 10542 10545 10547 10554 10568 10579 10594 10611 10618 10648 10666 10663 10662 10663 10664 10670 10677 10682
10178 10187 10209 10232 10249 10254 10248 10224 10257 10352 10366 10365 10366 10379 10398 10413 10424 10419 10447 10458 10468 10477 10483 10493 10499 10512 10512 10516 10523 10534 10547 10542 10556 10573 10587 10609 10628 10636 10645 10648 10648 10652 10653 10659 10666
10128 10138 10171 10184 10198 10199 10185 10192 10242 10315 10326 10327 10325 10345 10366 10383 10384 10394 10419 10449 10454 10457 10463 10471 10475 10489 10493 10492 10507 10514 10522 10525 10544 10558 10569 10592 10603 10620 10618 10625 10632 10633 10636 10643 10647
10088 10097 10128 10131 10140 10145 10144 10168 10217 10273 10288 10292 10296 10310 10333 10348 10360 10376 10403 10422 10423 10433 10431 10436 10446 10462 10467 10484 10492 10493 10505 10512 10517 10532 10549 10568 10588 10590 10599 10601 10609 10615 10620 10627 10631
10037 10057 10078 10084 10094 10106 10122 10142 10178 10227 10244 10248 10258 10280 10297 10320 10337 10352 10377 10391 10397 10402 10404 10423 10420 10429 10456 10456 10461 10472 10491 10490 10504 10522 10530 10544 10580 10574 10577 10582 10584 10596 10604 10610 10613
10009 10029 10032 10041 10054 10076 10095 10108 10139 10170 10204 10214 10224 10248 10268 10288 10297 10319 10347 10365 10366 10375 10385 10397 10388 10403 10414 10430 10461 10476 10475 10484 10486 10488 10512 10529 10570 10557 10554 10554 10563 10572 10584 10593 10596
9981 9994 10001 10011 10027 10043 10057 10078 10098 10129 10162 10171 10186 10207 10231 10256 10263 10294 10319 10332 10343 10353 10358 10361 10361 10375 10399 10443 10426 10432 10442 10448 10449 10449 10500 10509 10540 10538 10531 10536 10546 10558 10566 10572 10575
9955 9968 9971 9984 9998 10013 10026 10047 10059 10085 10113 10133 10148 10171 10198 10222 10235 10257 10288 10301 10312 10324 10330 10329 10339 10357 10384 10404 10392 10412 10420 10425 10427 10464 10456 10521 10519 10524 10520 10521 10534 10545 10548 10550 10554
9931 9939 9944 9958 9969 9977 9991 10007 10023 10051 10071 10098 10113 10134 10156 10181 10199 10221 10241 10264 10274 10285 10300 10299 10309 10316 10342 10371 10366 10380 10392 10396 10407 10446 10450 10493 10503 10507 10504 10510 10517 10518 10523 10531 10534
9907 9914 9921 9933 9942 9949 9971 9985 10000 10018 10035 10060 10075 10100 10115 10139 10161 10185 10200 10226 10243 10249 10261 10259 10287 10285 10311 10342 10340 10323 10362 10390 10409 10426 10436 10447 10499 10484 10483 10490 10499 10498 10507 10514 10518